格洛纳斯-777 COSMOS 2309 [GLONASS]

导读 | 星芒AI

COSMOS 2309 是一颗俄罗斯 GLONASS 卫星,于 1994 年发射,用于全球导航卫星系统。它属于 GLONASS-M 系列,旨在提供高精度的定位和导航服务。该卫星运行在中地球轨道,设计寿命较长,支持俄罗斯及国际用户的导航需求。COSMOS 2309 在 GLONASS 系统中发挥了重要作用,直到其退役。

基本信息
目录编号:
23513
目录名称:
COSMOS 2309 (GLONASS)
国际标识:
1995-009C
轨道中心:
EARTH
卫星名称:
格洛纳斯-777
卫星全名:
格洛纳斯-777 COSMOS 2309 [GLONASS]
卫星状态:
在轨 (已飞行11197 天)
发射日期:
1995-03-07 UTC
国别 :
俄罗斯(独联体) (CIS)
星等 :
--
轨道信息
数据来源 国际轨道数据
星历时间: 2025-10-30T09:15:30+0800
2天前
查看轨道信息
半长轴: 25512.008km
偏心率: 0.0037287
轨道倾角: 64.167°
近地点辐角 215.160°
升交点赤经 309.520°
平近点角 143.221°
近地点: 19038.746km
远地点: 19229km
周期: 675.891分钟
每日圈数: 2.130521
详细信息
平衡模式:
三轴稳定
覆盖范围:
全球
运营商:
列舍特涅夫卫星信息系统
运营商所在国:
俄罗斯
制造商(研发单位):
列舍特涅夫卫星信息系统
制造商所在国:
俄罗斯
使用方式:
暂无
卫星简介
格洛纳斯(GLONASS )是苏联/俄罗斯研制卫星导航系统。标准配置为24颗卫星,其中18颗卫星就能保证该系统为俄罗斯境内用户提供全部服务。该卫星已退役。
2D轨道图
3D轨道图
轨道高度分析图
轨道倾角分析图
轨道综合分析图
查看轨道综合分析图